29-07-2022, 00:00:02,    116,    0.0,   14.4,   0.00,   0.00, 1015.1,   61.0, -999.0
29-07-2022, 00:00:12,    116,    0.0,   14.5,   0.00,   0.00, 1015.1,   61.1, -999.0
29-07-2022, 00:00:22,    116,    0.0,   14.4,   0.00,   0.00, 1015.1,   61.1, -999.0
29-07-2022, 00:00:32,    116,    0.0,   14.4,   0.00,   0.00, 1015.1,   61.0, -999.0
29-07-2022, 00:00:42,    116,    0.0,   14.5,   0.00,   0.00, 1015.1,   61.1, -999.0
29-07-2022, 00:00:52,    116,    0.0,   14.5,   0.00,   0.00, 1015.1,   61.3, -999.0
29-07-2022, 00:01:02,    116,    0.0,   14.5,   0.00,   0.00, 1015.1,   61.1, -999.0
29-07-2022, 00:01:11,    116,    0.0,   14.5,   0.00,   0.00, 1015.1,   61.2, -999.0
29-07-2022, 00:01:22,    116,    0.0,   14.5,   0.00,   0.00, 1015.1,   61.0, -999.0
29-07-2022, 00:01:32,    116,    0.0,   14.5,   0.00,   0.00, 1015.1,   61.0, -999.0
29-07-2022, 00:01:41,    116,    0.0,   14.5,   0.00,   0.00, 1015.1,   61.0, -999.0
29-07-2022, 00:01:51,    116,    0.0,   14.5,   0.00,   0.00, 1015.1,   60.9, -999.0
29-07-2022, 00:02:02,    116,    0.0,   14.4,   0.00,   0.00, 1015.1,   60.9, -999.0
29-07-2022, 00:02:11,    115,    0.0,   14.4,   0.00,   0.00, 1015.1,   60.9, -999.0
29-07-2022, 00:02:21,    116,    0.0,   14.4,   0.00,   0.00, 1015.1,   60.9, -999.0
29-07-2022, 00:02:32,    116,    0.0,   14.3,   0.00,   0.00, 1015.1,   61.0, -999.0
29-07-2022, 00:02:41,    116,    0.0,   14.3,   0.00,   0.00, 1015.1,   61.1, -999.0
29-07-2022, 00:02:51,    116,    0.0,   14.3,   0.00,   0.00, 1015.1,   61.2, -999.0
29-07-2022, 00:03:01,    116,    0.0,   14.3,   0.00,   0.00, 1015.1,   61.2, -999.0
29-07-2022, 00:03:11,    116,    0.0,   14.3,   0.00,   0.00, 1015.1,   61.3, -999.0
29-07-2022, 00:03:21,    116,    0.0,   14.3,   0.00,   0.00, 1015.1,   61.3, -999.0
29-07-2022, 00:03:31,    116,    0.0,   14.2,   0.00,   0.00, 1015.1,   61.4, -999.0
29-07-2022, 00:03:41,    116,    0.0,   14.2,   0.00,   0.00, 1015.1,   61.4, -999.0
29-07-2022, 00:03:51,    116,    0.0,   14.3,   0.00,   0.00, 1015.1,   61.5, -999.0
29-07-2022, 00:04:01,    116,    0.0,   14.3,   0.00,   0.00, 1015.1,   61.5, -999.0
29-07-2022, 00:04:11,    116,    0.0,   14.3,   0.00,   0.00, 1015.1,   61.5, -999.0
29-07-2022, 00:04:21,    116,    0.0,   14.2,   0.00,   0.00, 1015.1,   61.6, -999.0
29-07-2022, 00:04:31,    116,    0.0,   14.2,   0.00,   0.00, 1015.1,   61.6, -999.0
29-07-2022, 00:04:41,    116,    0.0,   14.2,   0.00,   0.00, 1015.1,   61.7, -999.0
29-07-2022, 00:04:50,    116,    0.0,   14.2,   0.00,   0.00, 1015.1,   61.7, -999.0
29-07-2022, 00:05:00,    116,    0.0,   14.2,   0.00,   0.00, 1015.1,   61.6, -999.0
29-07-2022, 00:05:11,    116,    0.0,   14.2,   0.00,   0.00, 1015.1,   61.7, -999.0
29-07-2022, 00:05:20,    116,    0.0,   14.3,   0.00,   0.00, 1015.1,   61.6, -999.0
29-07-2022, 00:05:30,    116,    0.0,   14.3,   0.00,   0.00, 1015.1,   61.7, -999.0
29-07-2022, 00:05:40,    116,    0.0,   14.3,   0.00,   0.00, 1015.1,   61.7, -999.0
29-07-2022, 00:05:50,    116,    0.0,   14.2,   0.00,   0.00, 1015.1,   61.7, -999.0
29-07-2022, 00:06:00,    116,    0.0,   14.3,   0.00,   0.00, 1015.1,   61.6, -999.0
29-07-2022, 00:06:10,    116,    0.0,   14.3,   0.00,   0.00, 1015.1,   61.7, -999.0
29-07-2022, 00:06:20,    116,    0.0,   14.2,   0.00,   0.00, 1015.1,   61.7, -999.0
29-07-2022, 00:06:30,    116,    0.0,   14.3,   0.00,   0.00, 1015.1,   61.7, -999.0
29-07-2022, 00:06:40,    116,    0.0,   14.3,   0.00,   0.00, 1015.1,   61.7, -999.0
29-07-2022, 00:06:50,    116,    0.0,   14.3,   0.00,   0.00, 1015.1,   61.8, -999.0
29-07-2022, 00:07:00,    116,    0.0,   14.3,   0.00,   0.00, 1015.1,   61.6, -999.0
29-07-2022, 00:07:10,    116,    0.0,   14.3,   0.00,   0.00, 1015.1,   61.8, -999.0
29-07-2022, 00:07:20,    116,    0.0,   14.3,   0.00,   0.00, 1015.1,   61.8, -999.0
29-07-2022, 00:07:30,    116,    0.0,   14.3,   0.00,   0.00, 1015.2,   61.8, -999.0
29-07-2022, 00:07:40,    116,    0.0,   14.3,   0.00,   0.00, 1015.1,   61.6, -999.0
29-07-2022, 00:07:50,    116,    0.0,   14.2,   0.00,   0.00, 1015.1,   61.7, -999.0
29-07-2022, 00:07:59,    116,    0.0,   14.2,   0.00,   0.00, 1015.2,   61.8, -999.0
29-07-2022, 00:08:09,    116,    0.0,   14.2,   0.00,   0.00, 1015.1,   61.7, -999.0
29-07-2022, 00:08:20,     89,    0.0,   14.2,   0.00,   0.00, 1015.1,   61.7, -999.0
29-07-2022, 00:08:29,     89,    0.0,   14.1,   0.00,   0.00, 1015.1,   61.8, -999.0
29-07-2022, 00:08:39,     89,    0.0,   14.3,   0.00,   0.00, 1015.1,   61.8, -999.0
29-07-2022, 00:08:49,     89,    0.0,   14.1,   0.00,   0.00, 1015.1,   61.8, -999.0
29-07-2022, 00:08:59,     89,    0.0,   14.1,   0.00,   0.00, 1015.1,   61.8, -999.0
29-07-2022, 00:09:09,     89,    0.0,   14.1,   0.00,   0.00, 1015.1,   61.9, -999.0
29-07-2022, 00:09:19,     89,    0.0,   14.1,   0.00,   0.00, 1015.1,   61.9, -999.0
29-07-2022, 00:09:29,     89,    0.0,   14.1,   0.00,   0.00, 1015.1,   62.0, -999.0
29-07-2022, 00:09:39,     89,    0.0,   14.2,   0.00,   0.00, 1015.1,   62.0, -999.0
29-07-2022, 00:09:49,     90,    0.0,   14.2,   0.00,   0.00, 1015.1,   61.9, -999.0
29-07-2022, 00:09:59,     89,    0.0,   14.3,   0.00,   0.00, 1015.1,   61.9, -999.0
29-07-2022, 00:10:09,     89,    0.0,   14.3,   0.00,   0.00, 1015.1,   61.9, -999.0
29-07-2022, 00:10:19,     89,    0.0,   14.3,   0.00,   0.00, 1015.1,   61.9, -999.0
29-07-2022, 00:10:29,     89,    0.0,   14.4,   0.00,   0.00, 1015.1,   61.9, -999.0
29-07-2022, 00:10:39,     89,    0.0,   14.4,   0.00,   0.00, 1015.1,   61.7, -999.0
29-07-2022, 00:10:49,     89,    0.0,   14.4,   0.00,   0.00, 1015.1,   61.8, -999.0
29-07-2022, 00:10:59,     89,    0.0,   14.3,   0.00,   0.00, 1015.1,   61.8, -999.0
29-07-2022, 00:11:08,     89,    0.0,   14.4,   0.00,   0.00, 1015.1,   61.6, -999.0
29-07-2022, 00:11:18,     89,    0.0,   14.4,   0.00,   0.00, 1015.1,   61.7, -999.0
29-07-2022, 00:11:29,     89,    0.0,   14.3,   0.00,   0.00, 1015.1,   61.7, -999.0
29-07-2022, 00:11:38,     89,    0.0,   14.3,   0.00,   0.00, 1015.1,   61.7, -999.0
29-07-2022, 00:11:48,     89,    0.0,   14.4,   0.00,   0.00, 1015.1,   61.7, -999.0
29-07-2022, 00:11:59,     89,    0.0,   14.4,   0.00,   0.00, 1015.1,   61.7, -999.0
29-07-2022, 00:12:08,     89,    0.0,   14.3,   0.00,   0.00, 1015.1,   61.6, -999.0
29-07-2022, 00:12:18,     89,    0.0,   14.2,   0.00,   0.00, 1015.1,   61.7, -999.0
29-07-2022, 00:12:28,     89,    0.0,   14.2,   0.00,   0.00, 1015.1,   61.6, -999.0
29-07-2022, 00:12:38,     89,    0.0,   14.2,   0.00,   0.00, 1015.1,   61.5, -999.0
29-07-2022, 00:12:48,     89,    0.0,   14.3,   0.00,   0.00, 1015.1,   61.6, -999.0
29-07-2022, 00:12:58,     89,    0.0,   14.2,   0.00,   0.00, 1015.1,   61.5, -999.0
29-07-2022, 00:13:08,     89,    0.0,   14.3,   0.00,   0.00, 1015.1,   61.7, -999.0
29-07-2022, 00:13:18,     89,    0.0,   14.2,   0.00,   0.00, 1015.1,   61.7, -999.0
29-07-2022, 00:13:28,     89,    0.0,   14.3,   0.00,   0.00, 1015.1,   61.6, -999.0
29-07-2022, 00:13:38,     89,    0.0,   14.4,   0.00,   0.00, 1015.1,   61.5, -999.0
29-07-2022, 00:13:48,     88,    0.0,   14.3,   0.00,   0.00, 1015.1,   61.5, -999.0
29-07-2022, 00:13:58,     89,    0.0,   14.3,   0.00,   0.00, 1015.1,   61.6, -999.0
29-07-2022, 00:14:08,     89,    0.0,   14.4,   0.00,   0.00, 1015.1,   61.5, -999.0
29-07-2022, 00:14:17,     89,    0.0,   14.3,   0.00,   0.00, 1015.1,   61.5, -999.0
29-07-2022, 00:14:27,     88,    0.0,   14.4,   0.00,   0.00, 1015.1,   61.5, -999.0
29-07-2022, 00:14:38,     89,    0.0,   14.4,   0.00,   0.00, 1015.1,   61.6, -999.0
29-07-2022, 00:14:47,     88,    0.0,   14.4,   0.00,   0.00, 1015.1,   61.5, -999.0
29-07-2022, 00:14:57,     87,    0.0,   14.4,   0.00,   0.00, 1015.1,   61.5, -999.0
29-07-2022, 00:15:08,     87,    0.0,   14.3,   0.00,   0.00, 1015.1,   61.6, -999.0
29-07-2022, 00:15:17,     87,    0.0,   14.3,   0.00,   0.00, 1015.1,   61.6, -999.0
29-07-2022, 00:15:27,     87,    0.0,   14.3,   0.00,   0.00, 1015.1,   61.5, -999.0
29-07-2022, 00:15:37,     87,    0.0,   14.3,   0.00,   0.00, 1015.1,   61.6, -999.0
29-07-2022, 00:15:47,     87,    0.0,   14.3,   0.00,   0.00, 1015.1,   61.6, -999.0
29-07-2022, 00:15:57,     87,    0.0,   14.3,   0.00,   0.00, 1015.1,   61.6, -999.0
29-07-2022, 00:16:07,     87,    0.0,   14.2,   0.00,   0.00, 1015.1,   61.7, -999.0
29-07-2022, 00:16:17,     87,    0.0,   14.3,   0.00,   0.00, 1015.1,   61.6, -999.0
29-07-2022, 00:16:27,     87,    0.0,   14.3,   0.00,   0.00, 1015.1,   61.6, -999.0
29-07-2022, 00:16:37,     88,    0.0,   14.4,   0.00,   0.00, 1015.1,   61.6, -999.0
29-07-2022, 00:16:47,     88,    0.0,   14.4,   0.00,   0.00, 1015.1,   61.6, -999.0
29-07-2022, 00:16:57,     88,    0.0,   14.4,   0.00,   0.00, 1015.1,   61.6, -999.0
29-07-2022, 00:17:07,     87,    0.0,   14.4,   0.00,   0.00, 1015.0,   61.4, -999.0
29-07-2022, 00:17:17,     88,    0.0,   14.2,   0.00,   0.00, 1015.0,   61.5, -999.0
29-07-2022, 00:17:27,     87,    0.0,   14.4,   0.00,   0.00, 1015.1,   61.4, -999.0
29-07-2022, 00:17:36,     88,    0.0,   14.4,   0.00,   0.00, 1015.1,   61.5, -999.0
29-07-2022, 00:17:47,     87,    0.0,   14.4,   0.00,   0.00, 1015.0,   61.4, -999.0
29-07-2022, 00:17:56,     87,    0.0,   14.4,   0.00,   0.00, 1015.1,   61.5, -999.0
29-07-2022, 00:18:06,     87,    0.0,   14.4,   0.00,   0.00, 1015.0,   61.6, -999.0
29-07-2022, 00:18:17,     87,    0.0,   14.4,   0.00,   0.00, 1015.1,   61.5, -999.0
29-07-2022, 00:18:26,     88,    0.0,   14.4,   0.00,   0.00, 1015.0,   61.5, -999.0
29-07-2022, 00:18:36,     87,    0.0,   14.4,   0.00,   0.00, 1015.0,   61.4, -999.0
29-07-2022, 00:18:46,     87,    0.0,   14.4,   0.00,   0.00, 1015.0,   61.4, -999.0
29-07-2022, 00:18:56,     88,    0.0,   14.3,   0.00,   0.00, 1015.0,   61.4, -999.0
29-07-2022, 00:19:06,     87,    0.0,   14.3,   0.00,   0.00, 1015.0,   61.4, -999.0
29-07-2022, 00:19:16,     88,    0.0,   14.2,   0.00,   0.00, 1015.1,   61.4, -999.0
29-07-2022, 00:19:26,     87,    0.0,   14.3,   0.00,   0.00, 1015.0,   61.5, -999.0
29-07-2022, 00:19:36,     87,    0.0,   14.3,   0.00,   0.00, 1015.1,   61.6, -999.0
29-07-2022, 00:19:46,     87,    0.0,   14.2,   0.00,   0.00, 1015.0,   61.6, -999.0
29-07-2022, 00:19:56,     87,    0.0,   14.3,   0.00,   0.00, 1015.0,   61.7, -999.0
29-07-2022, 00:20:06,     87,    0.0,   14.2,   0.00,   0.00, 1015.0,   61.5, -999.0
29-07-2022, 00:20:16,     87,    0.0,   14.1,   0.00,   0.00, 1015.0,   61.6, -999.0
29-07-2022, 00:20:26,     87,    0.0,   14.1,   0.00,   0.00, 1015.0,   61.6, -999.0
29-07-2022, 00:20:36,     87,    0.0,   14.2,   0.00,   0.00, 1015.0,   61.7, -999.0
29-07-2022, 00:20:45,     87,    0.0,   14.2,   0.00,   0.00, 1015.0,   61.7, -999.0
29-07-2022, 00:20:56,     87,    0.0,   14.1,   0.00,   0.00, 1015.0,   61.7, -999.0
29-07-2022, 00:21:05,     87,    0.0,   14.1,   0.00,   0.00, 1015.0,   61.8, -999.0
29-07-2022, 00:21:15,     87,    0.0,   14.1,   0.00,   0.00, 1015.0,   61.8, -999.0
29-07-2022, 00:21:26,     87,    0.0,   14.1,   0.00,   0.00, 1015.0,   62.0, -999.0
29-07-2022, 00:21:35,     87,    0.0,   14.1,   0.00,   0.00, 1015.0,   61.9, -999.0
29-07-2022, 00:21:45,     87,    0.0,   14.1,   0.00,   0.00, 1015.0,   62.0, -999.0
29-07-2022, 00:21:55,     87,    0.0,   14.1,   0.00,   0.00, 1015.0,   61.9, -999.0
29-07-2022, 00:22:05,     87,    0.0,   14.1,   0.00,   0.00, 1015.0,   62.0, -999.0
29-07-2022, 00:22:15,     87,    0.0,   14.1,   0.00,   0.00, 1015.0,   62.0, -999.0
29-07-2022, 00:22:25,     87,    0.0,   14.2,   0.00,   0.00, 1014.9,   62.1, -999.0
29-07-2022, 00:22:35,     87,    0.0,   14.1,   0.00,   0.00, 1015.0,   62.0, -999.0
29-07-2022, 00:22:45,     87,    0.0,   14.1,   0.00,   0.00, 1015.0,   62.0, -999.0
29-07-2022, 00:22:55,     88,    0.0,   14.1,   0.00,   0.00, 1015.0,   62.0, -999.0
29-07-2022, 00:23:05,     87,    0.0,   14.1,   0.00,   0.00, 1015.0,   62.0, -999.0
29-07-2022, 00:23:15,     88,    0.0,   14.1,   0.00,   0.00, 1015.0,   62.1, -999.0
29-07-2022, 00:23:25,     87,    0.0,   14.1,   0.00,   0.00, 1015.0,   62.1, -999.0
29-07-2022, 00:23:35,     87,    0.0,   14.0,   0.00,   0.00, 1015.0,   62.1, -999.0
29-07-2022, 00:23:45,     87,    0.0,   14.1,   0.00,   0.00, 1015.0,   62.1, -999.0
29-07-2022, 00:23:54,     87,    0.0,   14.1,   0.00,   0.00, 1015.0,   62.0, -999.0
29-07-2022, 00:24:05,     87,    0.0,   14.1,   0.00,   0.00, 1015.0,   62.1, -999.0
29-07-2022, 00:24:14,     87,    0.0,   14.1,   0.00,   0.00, 1015.0,   62.1, -999.0
29-07-2022, 00:24:24,     87,    0.0,   14.1,   0.00,   0.00, 1015.0,   62.2, -999.0
29-07-2022, 00:24:34,     88,    0.0,   14.1,   0.00,   0.00, 1015.0,   62.2, -999.0
29-07-2022, 00:24:44,     87,    0.0,   14.0,   0.00,   0.00, 1015.0,   62.2, -999.0
29-07-2022, 00:24:54,     87,    0.0,   14.1,   0.00,   0.00, 1015.0,   62.3, -999.0
29-07-2022, 00:25:04,     87,    0.0,   14.1,   0.00,   0.00, 1015.0,   62.3, -999.0
29-07-2022, 00:25:14,     87,    0.0,   14.2,   0.00,   0.00, 1015.0,   62.4, -999.0
29-07-2022, 00:25:24,     87,    0.0,   14.2,   0.00,   0.00, 1014.9,   62.2, -999.0
29-07-2022, 00:25:34,     87,    0.0,   14.2,   0.00,   0.00, 1015.0,   62.3, -999.0
29-07-2022, 00:25:44,     87,    0.0,   14.3,   0.00,   0.00, 1015.0,   62.4, -999.0
29-07-2022, 00:25:54,     87,    0.0,   14.2,   0.00,   0.00, 1015.0,   62.2, -999.0
29-07-2022, 00:26:04,     88,    0.0,   14.3,   0.00,   0.00, 1015.0,   62.1, -999.0
29-07-2022, 00:26:14,     87,    0.0,   14.2,   0.00,   0.00, 1015.0,   62.2, -999.0
29-07-2022, 00:26:24,     87,    0.0,   14.3,   0.00,   0.00, 1015.0,   62.2, -999.0
29-07-2022, 00:26:34,     87,    0.0,   14.2,   0.00,   0.00, 1015.0,   62.0, -999.0
29-07-2022, 00:26:44,     87,    0.0,   14.2,   0.00,   0.00, 1015.0,   62.0, -999.0
29-07-2022, 00:26:54,     87,    0.0,   14.2,   0.00,   0.00, 1015.0,   62.0, -999.0
29-07-2022, 00:27:03,     87,    0.0,   14.2,   0.00,   0.00, 1015.0,   62.0, -999.0
29-07-2022, 00:27:14,     87,    0.0,   14.2,   0.00,   0.00, 1014.9,   61.9, -999.0
29-07-2022, 00:27:24,     87,    0.0,   14.1,   0.00,   0.00, 1015.0,   62.0, -999.0
29-07-2022, 00:27:33,     88,    0.0,   14.1,   0.00,   0.00, 1015.0,   62.1, -999.0
29-07-2022, 00:27:43,     87,    0.0,   14.1,   0.00,   0.00, 1015.0,   61.9, -999.0
29-07-2022, 00:27:53,     87,    0.0,   14.1,   0.00,   0.00, 1015.0,   62.1, -999.0
29-07-2022, 00:28:03,     87,    0.0,   14.0,   0.00,   0.00, 1015.0,   62.2, -999.0
29-07-2022, 00:28:13,     87,    0.0,   14.1,   0.00,   0.00, 1015.0,   62.2, -999.0
29-07-2022, 00:28:23,     87,    0.0,   14.1,   0.00,   0.00, 1015.0,   62.3, -999.0
29-07-2022, 00:28:33,     88,    0.0,   14.1,   0.00,   0.00, 1015.0,   62.3, -999.0
29-07-2022, 00:28:43,     87,    0.0,   14.1,   0.00,   0.00, 1015.0,   62.2, -999.0
29-07-2022, 00:28:53,     87,    0.0,   14.0,   0.00,   0.00, 1015.0,   62.2, -999.0
29-07-2022, 00:29:03,     87,    0.0,   14.0,   0.00,   0.00, 1015.0,   62.3, -999.0
29-07-2022, 00:29:13,     87,    0.0,   14.2,   0.00,   0.00, 1015.0,   62.3, -999.0
29-07-2022, 00:29:23,     87,    0.0,   14.2,   0.00,   0.00, 1015.0,   62.3, -999.0
29-07-2022, 00:29:33,     87,    0.0,   14.1,   0.00,   0.00, 1015.0,   62.3, -999.0
29-07-2022, 00:29:43,     88,    0.0,   14.1,   0.00,   0.00, 1015.0,   62.3, -999.0
29-07-2022, 00:29:53,     87,    0.0,   14.1,   0.00,   0.00, 1015.0,   62.2, -999.0
29-07-2022, 00:30:03,     87,    0.0,   14.1,   0.00,   0.00, 1015.0,   62.3, -999.0
29-07-2022, 00:30:12,     87,    0.0,   14.1,   0.00,   0.00, 1015.0,   62.3, -999.0
29-07-2022, 00:30:23,     87,    0.0,   14.1,   0.00,   0.00, 1015.0,   62.3, -999.0
29-07-2022, 00:30:33,     87,    0.0,   14.1,   0.00,   0.00, 1015.0,   62.3, -999.0
29-07-2022, 00:30:42,     87,    0.0,   14.1,   0.00,   0.00, 1015.0,   62.3, -999.0
29-07-2022, 00:30:52,     87,    0.0,   14.0,   0.00,   0.00, 1015.0,   62.3, -999.0
29-07-2022, 00:31:03,     87,    0.0,   14.1,   0.00,   0.00, 1015.0,   62.3, -999.0
29-07-2022, 00:31:12,     87,    0.0,   14.1,   0.00,   0.00, 1015.0,   62.3, -999.0
29-07-2022, 00:31:22,     87,    0.0,   14.1,   0.00,   0.00, 1015.0,   62.4, -999.0
29-07-2022, 00:31:32,     87,    0.0,   14.1,   0.00,   0.00, 1015.0,   62.3, -999.0
29-07-2022, 00:31:42,     87,    0.0,   14.0,   0.00,   0.00, 1015.0,   62.3, -999.0
29-07-2022, 00:31:52,     87,    0.0,   14.0,   0.00,   0.00, 1015.0,   62.3, -999.0
29-07-2022, 00:32:02,     87,    0.0,   14.0,   0.00,   0.00, 1015.0,   62.4, -999.0
29-07-2022, 00:32:12,     87,    0.0,   14.0,   0.00,   0.00, 1014.9,   62.4, -999.0
29-07-2022, 00:32:22,     87,    0.0,   14.0,   0.00,   0.00, 1015.0,   62.3, -999.0
29-07-2022, 00:32:32,     87,    0.0,   14.0,   0.00,   0.00, 1015.0,   62.3, -999.0
29-07-2022, 00:32:42,     87,    0.0,   14.0,   0.00,   0.00, 1015.0,   62.4, -999.0
29-07-2022, 00:32:52,     87,    0.0,   13.9,   0.00,   0.00, 1015.0,   62.5, -999.0
29-07-2022, 00:33:02,     88,    0.0,   13.9,   0.00,   0.00, 1015.0,   62.5, -999.0
29-07-2022, 00:33:12,     87,    0.0,   13.9,   0.00,   0.00, 1014.9,   62.6, -999.0
29-07-2022, 00:33:21,     87,    0.0,   13.8,   0.00,   0.00, 1015.0,   62.7, -999.0
29-07-2022, 00:33:32,     87,    0.0,   13.8,   0.00,   0.00, 1014.9,   62.6, -999.0
29-07-2022, 00:33:42,     87,    0.0,   13.7,   0.00,   0.00, 1015.0,   62.6, -999.0
29-07-2022, 00:33:51,     87,    0.0,   13.8,   0.00,   0.00, 1015.0,   62.8, -999.0
29-07-2022, 00:34:01,     88,    0.0,   13.9,   0.00,   0.00, 1015.0,   62.8, -999.0
29-07-2022, 00:34:12,     87,    0.0,   13.9,   0.00,   0.00, 1015.0,   62.9, -999.0
29-07-2022, 00:34:21,     87,    0.0,   13.9,   0.00,   0.00, 1015.0,   62.9, -999.0
29-07-2022, 00:34:31,     87,    0.0,   13.9,   0.00,   0.00, 1014.9,   63.0, -999.0
29-07-2022, 00:34:41,     87,    0.0,   13.9,   0.00,   0.00, 1014.9,   62.9, -999.0
29-07-2022, 00:34:51,     88,    0.0,   13.9,   0.00,   0.00, 1014.9,   63.0, -999.0
29-07-2022, 00:35:01,     87,    0.0,   13.9,   0.00,   0.00, 1015.0,   62.9, -999.0
29-07-2022, 00:35:11,     88,    0.0,   13.9,   0.00,   0.00, 1014.9,   62.9, -999.0
29-07-2022, 00:35:21,     87,    0.0,   13.9,   0.00,   0.00, 1014.9,   63.0, -999.0
29-07-2022, 00:35:31,     87,    0.0,   13.9,   0.00,   0.00, 1015.0,   62.9, -999.0
29-07-2022, 00:35:41,     87,    0.0,   13.8,   0.00,   0.00, 1015.0,   63.0, -999.0
29-07-2022, 00:35:51,     87,    0.0,   13.8,   0.00,   0.00, 1015.0,   62.9, -999.0
29-07-2022, 00:36:01,     87,    0.0,   13.8,   0.00,   0.00, 1015.0,   62.9, -999.0
29-07-2022, 00:36:11,     87,    0.0,   13.7,   0.00,   0.00, 1015.0,   63.0, -999.0
29-07-2022, 00:36:21,     87,    0.0,   13.8,   0.00,   0.00, 1015.0,   63.2, -999.0
29-07-2022, 00:36:30,     87,    0.0,   13.9,   0.00,   0.00, 1015.0,   63.2, -999.0
29-07-2022, 00:36:41,     87,    0.0,   13.9,   0.00,   0.00, 1015.0,   63.1, -999.0
29-07-2022, 00:36:51,     87,    0.0,   13.8,   0.00,   0.00, 1015.0,   63.0, -999.0
29-07-2022, 00:37:00,     87,    0.0,   13.8,   0.00,   0.00, 1015.0,   63.1, -999.0
29-07-2022, 00:37:10,     91,    0.0,   13.8,   0.00,   0.00, 1015.0,   63.0, -999.0
29-07-2022, 00:37:21,     87,    0.0,   13.9,   0.00,   0.00, 1015.0,   63.0, -999.0
29-07-2022, 00:37:30,     87,    0.0,   13.9,   0.00,   0.00, 1015.0,   62.9, -999.0
29-07-2022, 00:37:40,     87,    0.0,   13.9,   0.00,   0.00, 1015.0,   63.1, -999.0
29-07-2022, 00:37:50,     87,    0.0,   13.9,   0.00,   0.00, 1015.0,   63.1, -999.0
29-07-2022, 00:38:00,     87,    0.0,   13.9,   0.00,   0.00, 1015.0,   63.1, -999.0
29-07-2022, 00:38:10,     87,    0.0,   13.9,   0.00,   0.00, 1015.0,   62.9, -999.0
29-07-2022, 00:38:20,     87,    0.0,   13.8,   0.00,   0.00, 1015.0,   63.1, -999.0
29-07-2022, 00:38:30,     87,    0.0,   13.8,   0.00,   0.00, 1015.0,   63.1, -999.0
29-07-2022, 00:38:40,     87,    0.0,   13.8,   0.00,   0.00, 1015.0,   63.1, -999.0
29-07-2022, 00:38:50,     87,    0.0,   13.9,   0.00,   0.00, 1015.0,   63.0, -999.0
29-07-2022, 00:39:00,     87,    0.0,   13.8,   0.00,   0.00, 1015.0,   63.2, -999.0
29-07-2022, 00:39:10,     87,    0.0,   13.8,   0.00,   0.00, 1015.0,   63.1, -999.0
29-07-2022, 00:39:20,     87,    0.0,   13.8,   0.00,   0.00, 1015.0,   63.2, -999.0
29-07-2022, 00:39:30,     87,    0.0,   13.7,   0.00,   0.00, 1015.0,   63.2, -999.0
29-07-2022, 00:39:39,     87,    0.0,   13.8,   0.00,   0.00, 1015.0,   63.2, -999.0
29-07-2022, 00:39:50,     87,    0.0,   13.7,   0.00,   0.00, 1015.0,   63.2, -999.0
29-07-2022, 00:40:00,     87,    0.0,   13.8,   0.00,   0.00, 1015.0,   63.2, -999.0
29-07-2022, 00:40:09,     87,    0.0,   13.8,   0.00,   0.00, 1015.0,   63.1, -999.0
29-07-2022, 00:40:19,     87,    0.0,   13.9,   0.00,   0.00, 1015.0,   63.3, -999.0
29-07-2022, 00:40:30,     87,    0.0,   13.8,   0.00,   0.00, 1015.0,   63.3, -999.0
29-07-2022, 00:40:39,     87,    0.0,   13.8,   0.00,   0.00, 1015.0,   63.3, -999.0
29-07-2022, 00:40:49,     87,    0.0,   13.9,   0.00,   0.00, 1015.0,   63.3, -999.0
29-07-2022, 00:40:59,     87,    0.0,   13.9,   0.00,   0.00, 1015.0,   63.2, -999.0
29-07-2022, 00:41:09,     87,    0.0,   13.9,   0.00,   0.00, 1014.9,   63.3, -999.0
29-07-2022, 00:41:19,     87,    0.0,   13.9,   0.00,   0.00, 1015.0,   63.2, -999.0
29-07-2022, 00:41:29,     87,    0.0,   13.9,   0.00,   0.00, 1014.9,   63.2, -999.0
29-07-2022, 00:41:39,     87,    0.0,   13.9,   0.00,   0.00, 1014.9,   63.2, -999.0
29-07-2022, 00:41:49,     87,    0.0,   13.9,   0.00,   0.00, 1015.0,   63.2, -999.0
29-07-2022, 00:41:59,     87,    0.0,   13.8,   0.00,   0.00, 1014.9,   63.1, -999.0
29-07-2022, 00:42:09,     87,    0.0,   13.9,   0.00,   0.00, 1014.9,   63.2, -999.0
29-07-2022, 00:42:19,     87,    0.0,   13.9,   0.00,   0.00, 1014.9,   63.2, -999.0
29-07-2022, 00:42:29,     92,    0.0,   13.9,   0.00,   0.00, 1014.9,   63.2, -999.0
29-07-2022, 00:42:39,     88,    0.0,   13.8,   0.00,   0.00, 1014.9,   63.2, -999.0
29-07-2022, 00:42:49,     87,    0.0,   13.9,   0.00,   0.00, 1015.0,   63.3, -999.0
29-07-2022, 00:42:59,     87,    0.0,   13.8,   0.00,   0.00, 1014.9,   63.3, -999.0
29-07-2022, 00:43:09,     87,    0.0,   13.8,   0.00,   0.00, 1014.9,   63.2, -999.0
29-07-2022, 00:43:18,     87,    0.0,   13.8,   0.00,   0.00, 1015.0,   63.2, -999.0
29-07-2022, 00:43:28,     87,    0.0,   13.6,   0.00,   0.00, 1015.0,   63.2, -999.0
29-07-2022, 00:43:39,     88,    0.0,   13.6,   0.00,   0.00, 1015.0,   63.3, -999.0
29-07-2022, 00:43:48,     87,    0.0,   13.5,   0.00,   0.00, 1015.0,   63.4, -999.0
29-07-2022, 00:43:58,     87,    0.0,   13.6,   0.00,   0.00, 1015.0,   63.5, -999.0
29-07-2022, 00:44:08,     87,    0.0,   13.5,   0.00,   0.00, 1014.9,   63.6, -999.0
29-07-2022, 00:44:18,     87,    0.0,   13.5,   0.00,   0.00, 1015.0,   63.6, -999.0
29-07-2022, 00:44:28,     60,    0.0,   13.6,   0.00,   0.00, 1015.0,   63.8, -999.0
29-07-2022, 00:44:38,     60,    0.0,   13.5,   0.00,   0.00, 1015.0,   63.8, -999.0
29-07-2022, 00:44:48,     60,    0.0,   13.5,   0.00,   0.00, 1014.9,   63.9, -999.0
29-07-2022, 00:44:58,     60,    0.0,   13.6,   0.00,   0.00, 1014.9,   63.9, -999.0
29-07-2022, 00:45:08,     60,    0.0,   13.6,   0.00,   0.00, 1014.9,   63.9, -999.0
29-07-2022, 00:45:18,     60,    0.0,   13.6,   0.00,   0.00, 1014.9,   63.9, -999.0
29-07-2022, 00:45:28,     61,    0.0,   13.7,   0.00,   0.00, 1014.9,   63.8, -999.0
29-07-2022, 00:45:38,     60,    0.0,   13.7,   0.00,   0.00, 1014.9,   63.7, -999.0
29-07-2022, 00:45:48,     60,    0.0,   13.7,   0.00,   0.00, 1014.9,   63.8, -999.0
29-07-2022, 00:45:58,     60,    0.0,   13.7,   0.00,   0.00, 1014.9,   63.8, -999.0
29-07-2022, 00:46:07,     60,    0.0,   13.7,   0.00,   0.00, 1015.0,   63.8, -999.0
29-07-2022, 00:46:18,     60,    0.0,   13.7,   0.00,   0.00, 1015.0,   63.6, -999.0
29-07-2022, 00:46:28,     60,    0.0,   13.6,   0.00,   0.00, 1014.9,   63.6, -999.0
29-07-2022, 00:46:37,     60,    0.0,   13.6,   0.00,   0.00, 1015.0,   63.7, -999.0